• în România
  • Lista ţărilor
  • Pe 7 zile
  • Temperatura apei
  • Hartă satelitară
  • Meteo pe hartă
  • Widget-uri
  • user-avatar
    Intrare

    Meteo pe oră la Zhitkovo

    Astăzi, 26 Septembrie, Miercuri

    Timp Temperatura Precipitaţii Vânt Presiune Umiditate
    00:00 +3°C° 0 mm 4 m/s 747 mmHg 79%
    01:00 +1°C° 0 mm 4 m/s 747 mmHg 79%
    02:00 +2°C° 0 mm 3 m/s 748 mmHg 79%
    03:00 +2°C° 0 mm 3 m/s 748 mmHg 81%
    04:00 +1°C° 0 mm 3 m/s 749 mmHg 83%
    05:00 +1°C° 0 mm 3 m/s 749 mmHg 84%
    06:00 +2°C° 0 mm 3 m/s 749 mmHg 83%
    07:00 +3°C° 0 mm 3 m/s 749 mmHg 81%
    08:00 +4°C° 0 mm 3 m/s 750 mmHg 79%
    09:00 +5°C° 0 mm 4 m/s 750 mmHg 74%
    10:00 +7°C° 0 mm 4 m/s 749 mmHg 68%
    11:00 +10°C° 0 mm 4 m/s 749 mmHg 62%
    12:00 +9°C° 0 mm 5 m/s 749 mmHg 60%
    13:00 +10°C° 0 mm 5 m/s 748 mmHg 58%
    14:00 +10°C° 0 mm 5 m/s 747 mmHg 56%
    15:00 +10°C° 0 mm 5 m/s 747 mmHg 59%
    16:00 +9°C° 0 mm 5 m/s 746 mmHg 62%
    17:00 +8°C° 0 mm 5 m/s 745 mmHg 65%
    18:00 +7°C° 0.6 mm 6 m/s 744 mmHg 71%
    19:00 +6°C° 0.6 mm 7 m/s 742 mmHg 78%
    20:00 +5°C° 0.6 mm 8 m/s 741 mmHg 85%
    21:00 +5°C° 1.6 mm 8 m/s 740 mmHg 85%
    22:00 +5°C° 1.6 mm 8 m/s 738 mmHg 86%
    23:00 +5°C° 1.6 mm 9 m/s 737 mmHg 87%

    Mâine, 27 Septembrie, Joi

    Timp Temperatura Precipitaţii Vânt Presiune Umiditate
    00:00 +5°C° 0.9 mm 8 m/s 736 mmHg 87%
    01:00 +5°C° 0.9 mm 8 m/s 735 mmHg 87%
    02:00 +5°C° 0.9 mm 8 m/s 734 mmHg 88%
    03:00 +6°C° 0.7 mm 7 m/s 734 mmHg 88%
    04:00 +6°C° 0.7 mm 7 m/s 733 mmHg 87%
    05:00 +7°C° 0.7 mm 6 m/s 733 mmHg 87%
    06:00 +7°C° 0.1 mm 6 m/s 734 mmHg 84%
    07:00 +7°C° 0.1 mm 6 m/s 734 mmHg 81%
    08:00 +7°C° 0.1 mm 6 m/s 734 mmHg 78%
    09:00 +6°C° 0.2 mm 7 m/s 735 mmHg 74%
    10:00 +8°C° 0.2 mm 7 m/s 735 mmHg 70%
    11:00 +7°C° 0.2 mm 8 m/s 735 mmHg 66%
    12:00 +7°C° 0.4 mm 8 m/s 736 mmHg 68%
    13:00 +8°C° 0.4 mm 7 m/s 736 mmHg 69%
    14:00 +8°C° 0.4 mm 7 m/s 736 mmHg 71%
    15:00 +8°C° 0.1 mm 6 m/s 736 mmHg 72%
    16:00 +7°C° 0.1 mm 5 m/s 737 mmHg 73%
    17:00 +7°C° 0.1 mm 4 m/s 737 mmHg 74%
    18:00 +6°C° 0 mm 4 m/s 737 mmHg 75%
    19:00 +6°C° 0 mm 4 m/s 738 mmHg 76%
    20:00 +5°C° 0 mm 4 m/s 738 mmHg 77%
    21:00 +5°C° 0 mm 4 m/s 738 mmHg 77%
    22:00 +5°C° 0 mm 4 m/s 738 mmHg 77%
    23:00 +5°C° 0 mm 4 m/s 738 mmHg 76%

    Poimâine, 28 Septembrie, Vineri

    Timp Temperatura Precipitaţii Vânt Presiune Umiditate
    00:00 +5°C° 0.2 mm 4 m/s 737 mmHg 79%
    01:00 +5°C° 0.2 mm 3 m/s 736 mmHg 81%
    02:00 +5°C° 0.2 mm 3 m/s 735 mmHg 83%
    03:00 +6°C° 2.1 mm 4 m/s 734 mmHg 86%
    04:00 +7°C° 2.1 mm 5 m/s 732 mmHg 89%
    05:00 +8°C° 2.1 mm 5 m/s 731 mmHg 92%
    06:00 +8°C° 2.5 mm 5 m/s 730 mmHg 92%
    07:00 +8°C° 2.5 mm 5 m/s 730 mmHg 92%
    08:00 +9°C° 2.5 mm 5 m/s 730 mmHg 92%
    09:00 +8°C° 0.4 mm 5 m/s 730 mmHg 90%
    10:00 +7°C° 0.4 mm 5 m/s 731 mmHg 88%
    11:00 +7°C° 0.4 mm 5 m/s 732 mmHg 86%
    12:00 +7°C° 0 mm 5 m/s 733 mmHg 80%
    13:00 +7°C° 0 mm 6 m/s 735 mmHg 75%
    14:00 +7°C° 0 mm 6 m/s 736 mmHg 69%
    15:00 +6°C° 0 mm 5 m/s 737 mmHg 70%
    16:00 +5°C° 0 mm 4 m/s 738 mmHg 72%
    17:00 +5°C° 0 mm 3 m/s 738 mmHg 73%
    18:00 +4°C° 0 mm 3 m/s 739 mmHg 75%
    19:00 +3°C° 0 mm 3 m/s 740 mmHg 78%
    20:00 +3°C° 0 mm 3 m/s 740 mmHg 80%
    21:00 +3°C° 0 mm 3 m/s 741 mmHg 81%
    22:00 +2°C° 0 mm 3 m/s 741 mmHg 82%
    23:00 +2°C° 0 mm 3 m/s 742 mmHg 83%

    29 Septembrie, Sâmbătă

    Timp Temperatura Precipitaţii Vânt Presiune Umiditate
    00:00 +2°C° 0 mm 3 m/s 742 mmHg 82%
    01:00 +1°C° 0 mm 3 m/s 743 mmHg 82%
    02:00 +1°C° 0 mm 3 m/s 743 mmHg 82%
    03:00 +1°C° 0 mm 3 m/s 744 mmHg 83%
    04:00 0°C° 0 mm 3 m/s 745 mmHg 83%
    05:00 0°C° 0 mm 3 m/s 745 mmHg 83%
    06:00 +1°C° 0 mm 3 m/s 746 mmHg 78%
    07:00 +1°C° 0 mm 4 m/s 746 mmHg 74%
    08:00 +3°C° 0 mm 4 m/s 747 mmHg 69%
    09:00 +4°C° 0 mm 4 m/s 747 mmHg 64%
    10:00 +5°C° 0 mm 4 m/s 748 mmHg 59%
    11:00 +6°C° 0 mm 4 m/s 748 mmHg 54%
    12:00 +6°C° 0 mm 4 m/s 748 mmHg 54%
    13:00 +7°C° 0 mm 4 m/s 748 mmHg 53%
    14:00 +7°C° 0 mm 4 m/s 748 mmHg 52%
    15:00 +7°C° 0 mm 3 m/s 749 mmHg 57%
    16:00 +5°C° 0 mm 3 m/s 749 mmHg 61%
    17:00 +5°C° 0 mm 2 m/s 749 mmHg 66%
    18:00 +4°C° 0 mm 2 m/s 750 mmHg 70%
    19:00 +2°C° 0 mm 2 m/s 750 mmHg 73%
    20:00 +2°C° 0 mm 1 m/s 751 mmHg 77%
    21:00 +2°C° 0 mm 1 m/s 751 mmHg 78%
    22:00 +2°C° 0 mm 1 m/s 751 mmHg 79%
    23:00 +1°C° 0 mm 1 m/s 751 mmHg 80%

    30 Septembrie, Duminică

    Timp Temperatura Precipitaţii Vânt Presiune Umiditate
    00:00 +1°C° 0 mm 1 m/s 752 mmHg 80%
    01:00 -1°C° 0 mm 2 m/s 752 mmHg 81%
    02:00 -1°C° 0 mm 2 m/s 752 mmHg 82%
    03:00 -1°C° 0 mm 2 m/s 752 mmHg 81%
    04:00 -1°C° 0 mm 2 m/s 752 mmHg 81%
    05:00 -1°C° 0 mm 2 m/s 752 mmHg 81%
    06:00 +1°C° 0 mm 2 m/s 752 mmHg 76%
    07:00 +1°C° 0 mm 3 m/s 752 mmHg 72%
    08:00 +3°C° 0 mm 3 m/s 752 mmHg 68%
    09:00 +4°C° 0 mm 4 m/s 751 mmHg 62%
    10:00 +5°C° 0 mm 4 m/s 751 mmHg 57%
    11:00 +7°C° 0 mm 4 m/s 751 mmHg 52%
    12:00 +7°C° 0 mm 5 m/s 750 mmHg 52%
    13:00 +8°C° 0 mm 5 m/s 750 mmHg 52%
    14:00 +8°C° 0 mm 5 m/s 749 mmHg 53%
    15:00 +7°C° 0 mm 4 m/s 749 mmHg 57%
    16:00 +6°C° 0 mm 4 m/s 749 mmHg 62%
    17:00 +7°C° 0 mm 3 m/s 748 mmHg 67%
    18:00 +5°C° 0 mm 4 m/s 748 mmHg 68%
    19:00 +5°C° 0 mm 4 m/s 748 mmHg 69%
    20:00 +5°C° 0 mm 4 m/s 748 mmHg 70%
    21:00 +4°C° 0 mm 4 m/s 748 mmHg 71%
    22:00 +4°C° 0 mm 4 m/s 748 mmHg 72%
    23:00 +4°C° 0 mm 4 m/s 748 mmHg 73%

    1 Octombrie, Luni

    Timp Temperatura Precipitaţii Vânt Presiune Umiditate
    00:00 +4°C° 0 mm 4 m/s 747 mmHg 74%
    01:00 +4°C° 0 mm 4 m/s 747 mmHg 75%
    02:00 +4°C° 0 mm 4 m/s 747 mmHg 76%
    03:00 +5°C° 0 mm 4 m/s 747 mmHg 77%
    04:00 +5°C° 0 mm 4 m/s 747 mmHg 77%
    05:00 +5°C° 0 mm 4 m/s 746 mmHg 78%
    06:00 +5°C° 0 mm 4 m/s 746 mmHg 77%
    07:00 +6°C° 0 mm 4 m/s 746 mmHg 76%
    08:00 +6°C° 0 mm 4 m/s 746 mmHg 75%
    09:00 +7°C° 0 mm 5 m/s 746 mmHg 72%
    10:00 +8°C° 0 mm 5 m/s 746 mmHg 68%
    11:00 +9°C° 0 mm 5 m/s 746 mmHg 65%
    12:00 +10°C° 0 mm 5 m/s 746 mmHg 63%
    13:00 +10°C° 0 mm 5 m/s 746 mmHg 61%
    14:00 +12°C° 0 mm 5 m/s 746 mmHg 59%
    15:00 +11°C° 0 mm 4 m/s 746 mmHg 64%
    16:00 +10°C° 0 mm 3 m/s 746 mmHg 69%
    17:00 +9°C° 0 mm 3 m/s 746 mmHg 74%
    18:00 +8°C° 0 mm 3 m/s 746 mmHg 76%
    19:00 +8°C° 0 mm 3 m/s 746 mmHg 79%
    20:00 +7°C° 0 mm 3 m/s 746 mmHg 81%
    21:00 +7°C° 0 mm 3 m/s 747 mmHg 82%
    22:00 +5°C° 0 mm 3 m/s 747 mmHg 83%
    23:00 +6°C° 0 mm 2 m/s 747 mmHg 84%
    Arată mai mult